Date,TemperatureHighF,TemperatureAvgF,TemperatureLowF,DewpointHighF,DewpointAvgF,DewpointLowF,HumidityHigh,HumidityAvg,HumidityLow,PressureMaxIn,PressureMinIn,WindSpeedMaxMPH,WindSpeedAvgMPH,GustSpeedMaxMPH,PrecipitationSumIn
2013-1-1,76.5,66.4,56.5,61.3,57.9,52.9,96,76,56,30.19,30.01,17,3,20,0.00
2013-1-2,77.7,69.5,64.8,69.1,66.1,61.0,98,89,74,30.04,29.96,15,3,18,0.00
2013-1-3,72.3,64.0,58.5,69.1,63.0,57.6,100,97,84,30.15,29.99,20,4,20,0.00
2013-1-4,60.6,57.4,54.7,59.0,56.4,53.8,98,96,92,30.26,30.13,11,4,15,0.00
2013-1-5,71.6,60.4,54.1,61.5,56.5,50.7,96,87,69,30.27,30.15,14,4,17,0.00
2013-1-6,75.6,64.4,61.2,69.3,62.6,59.4,99,94,79,30.17,30.05,13,4,16,0.00
2013-1-7,66.9,62.2,58.1,63.5,58.9,52.3,98,89,74,30.19,30.08,21,7,22,0.00
2013-1-8,81.7,70.0,61.7,69.4,64.9,60.1,97,85,62,30.19,30.08,12,4,15,0.00
2013-1-9,83.7,74.9,68.9,71.4,68.3,65.7,97,81,60,30.25,30.13,15,5,16,0.00
2013-1-10,81.3,74.1,69.1,69.4,66.9,63.7,96,80,56,30.25,30.17,18,5,21,0.00
2013-1-11,82.9,72.4,65.1,67.8,64.8,62.6,97,79,52,30.22,30.09,17,3,18,0.00
2013-1-12,81.9,71.3,66.0,68.4,66.6,64.4,96,86,59,30.14,30.04,13,3,18,0.00
2013-1-13,81.3,72.5,66.0,68.0,65.4,63.7,93,79,56,30.13,30.02,9,3,13,0.00
2013-1-14,81.5,71.5,65.1,66.6,62.5,58.8,94,75,49,30.15,30.07,9,2,14,0.00
2013-1-15,81.0,70.7,63.1,66.6,63.5,59.9,95,79,56,30.11,30.01,13,2,19,0.00
2013-1-16,82.2,71.5,64.6,67.1,64.4,59.4,98,80,47,30.07,29.97,12,3,15,0.00
2013-1-17,72.0,63.1,53.1,69.4,58.7,45.7,98,86,64,30.14,29.95,26,7,34,0.00
2013-1-18,62.6,53.9,43.0,54.0,46.1,36.7,81,75,66,30.30,30.14,19,7,23,0.00
2013-1-19,73.8,64.3,53.6,59.9,55.2,47.3,85,73,61,30.25,30.09,18,6,22,0.00
2013-1-20,74.1,64.5,59.4,62.8,58.6,55.2,92,82,67,30.15,30.01,14,4,16,0.00
2013-1-21,69.4,64.1,62.1,60.1,57.0,52.5,86,78,71,30.08,30.00,15,3,17,0.00
2013-1-22,66.2,59.7,53.8,53.6,42.5,31.1,75,54,31,30.27,30.05,14,4,17,0.00
2013-1-23,64.4,55.7,46.8,48.2,40.0,32.2,77,57,34,30.35,30.25,16,4,21,0.00
2013-1-24,66.0,57.6,47.8,56.8,50.6,42.8,94,78,49,30.33,30.23,11,1,12,0.00
2013-1-25,72.7,62.3,54.7,59.5,55.6,46.6,96,80,40,30.29,30.17,10,2,12,0.00
2013-1-26,70.0,64.3,57.7,60.6,57.9,53.2,92,80,65,30.26,30.16,8,1,11,0.00
2013-1-27,77.2,65.4,55.8,62.1,58.9,54.3,97,81,46,30.28,30.18,11,2,13,0.00
2013-1-28,79.0,69.4,62.2,65.5,62.8,59.5,96,81,56,30.29,30.17,16,4,16,0.00
2013-1-29,83.7,71.5,63.3,69.1,65.4,62.2,98,82,53,30.20,30.04,14,4,19,0.00
2013-1-30,78.8,72.7,67.6,67.8,66.3,62.2,90,81,65,30.04,29.86,29,9,32,0.00
2013-1-31,65.7,57.3,54.3,61.3,46.0,35.1,95,67,46,30.22,29.93,20,7,34,0.02
2013-2-1,61.7,55.6,47.3,47.3,40.1,31.8,73,57,38,30.35,30.20,18,5,19,0.00
2013-2-2,69.3,57.0,46.6,49.5,42.8,32.7,76,60,26,30.29,30.14,11,4,15,0.00
2013-2-3,66.7,58.1,46.8,56.7,49.7,42.4,90,74,56,30.18,30.08,11,2,14,0.00
2013-2-4,67.5,58.5,51.3,52.0,45.8,31.6,85,64,28,30.12,30.03,13,2,16,0.00
2013-2-5,75.7,61.6,50.5,58.3,49.3,38.8,81,65,41,30.08,29.98,12,2,14,0.00
2013-2-6,78.3,67.4,61.9,62.6,59.4,55.2,91,76,54,30.08,29.99,11,2,13,0.00
2013-2-7,79.0,69.8,63.5,67.8,64.1,59.7,95,83,58,30.03,29.83,21,6,28,0.00
2013-2-8,70.2,64.2,60.6,67.5,61.5,57.6,97,91,85,30.07,29.88,14,5,21,0.01
2013-2-9,72.9,62.7,55.4,60.3,56.4,52.5,96,81,55,30.17,30.05,14,4,18,0.00
2013-2-10,79.7,68.9,61.0,64.0,60.0,55.6,89,74,53,30.21,30.10,20,6,23,0.00
2013-2-11,80.1,71.2,63.7,68.2,64.7,61.0,92,81,64,30.17,30.04,19,5,22,0.00
2013-2-12,80.1,72.9,68.2,71.4,68.9,66.2,95,88,73,30.06,29.91,21,5,22,0.00
2013-2-13,80.1,71.1,59.9,73.4,67.7,54.9,97,89,70,29.97,29.81,20,6,27,0.01
2013-2-14,64.0,61.1,58.5,60.4,58.5,56.7,96,91,84,30.04,29.91,15,2,19,0.01
2013-2-15,62.8,58.3,54.3,58.3,53.9,50.9,96,86,70,30.07,29.94,10,2,14,0.00
2013-2-16,65.1,57.7,51.8,53.8,47.3,35.6,88,69,47,30.12,29.93,23,6,33,0.00
2013-2-17,53.4,46.4,40.6,38.5,28.1,18.9,64,49,40,30.33,30.12,22,6,28,0.00
2013-2-18,68.0,52.4,38.8,51.6,37.4,22.5,80,59,31,30.35,30.17,17,4,19,0.00
2013-2-19,75.6,65.0,54.0,63.0,56.7,49.3,92,76,55,30.19,30.05,22,4,22,0.00
2013-2-20,74.5,63.9,59.2,63.9,60.0,53.1,98,88,69,30.10,30.00,13,3,17,0.00
2013-2-21,82.2,68.8,58.6,66.6,61.6,52.7,92,79,56,30.08,29.95,11,3,16,0.00
2013-2-22,81.9,72.2,64.0,70.2,66.8,62.6,96,84,65,30.04,29.96,16,4,21,0.00
2013-2-23,77.5,72.4,68.7,72.3,69.8,67.6,98,92,83,29.97,29.87,16,5,20,0.00
2013-2-24,76.3,70.7,68.5,72.1,69.0,67.8,99,95,83,29.93,29.84,13,2,18,0.00
2013-2-25,81.7,74.2,68.2,72.1,69.6,67.3,98,87,66,29.87,29.73,15,4,19,0.00
2013-2-26,75.4,71.4,66.9,72.1,67.8,61.7,95,88,80,29.86,29.66,22,7,27,0.00
2013-2-27,67.8,64.0,60.3,62.6,57.0,53.2,84,78,68,29.97,29.85,15,4,18,0.00
2013-2-28,68.7,64.1,60.6,58.5,54.0,48.0,81,70,62,29.98,29.89,13,4,18,0.00
2013-3-1,60.6,57.3,52.3,50.2,44.4,37.8,71,62,50,30.01,29.90,17,5,23,0.00
2013-3-2,56.5,53.5,47.7,43.5,40.5,36.9,73,62,51,30.06,29.96,25,6,30,0.00
2013-3-3,53.2,47.6,42.1,40.5,35.6,29.3,72,63,57,30.14,29.98,26,6,26,0.00
2013-3-4,57.4,51.2,43.2,43.2,36.7,28.2,80,58,46,30.22,30.12,15,4,17,0.00
2013-3-5,70.3,59.8,46.2,61.3,52.2,40.6,87,76,63,30.15,30.01,15,3,19,0.00
2013-3-6,66.6,58.3,53.2,64.2,47.6,39.6,94,69,53,30.13,29.94,24,8,33,0.00
2013-3-7,56.5,52.1,44.8,47.3,39.7,33.3,81,63,45,30.22,30.12,16,4,20,0.00
2013-3-8,64.8,55.8,45.5,52.5,46.4,39.6,93,73,41,30.22,30.12,14,3,16,0.00
2013-3-9,73.0,60.9,51.6,56.1,49.8,43.0,85,69,35,30.20,30.11,14,4,18,0.00
2013-3-10,77.5,65.4,58.3,59.9,55.6,52.2,87,72,46,30.13,30.02,18,6,22,0.00
2013-3-11,77.2,68.6,60.1,63.0,59.2,56.5,89,73,52,30.07,29.84,16,5,21,0.00
2013-3-12,70.3,63.8,59.2,66.9,59.3,51.6,97,85,76,30.04,29.82,18,6,24,0.00
2013-3-13,64.2,61.0,58.6,53.4,47.6,41.9,78,62,48,30.18,30.02,20,6,24,0.00
2013-3-14,61.3,56.6,51.8,53.2,39.9,27.3,75,54,35,30.27,30.15,17,7,22,0.00
2013-3-15,64.8,56.8,45.3,51.8,42.5,28.6,89,62,26,30.28,30.15,13,2,15,0.00
2013-3-16,71.6,61.4,50.0,60.6,52.3,42.8,94,75,38,30.17,30.05,13,2,16,0.00
2013-3-17,76.5,65.2,55.8,60.3,57.7,54.0,97,78,53,30.11,29.97,14,2,18,0.00
2013-3-18,73.8,68.3,62.2,68.0,63.5,59.0,92,85,77,30.01,29.83,15,4,21,0.00
2013-3-19,81.0,68.4,63.3,66.7,64.2,62.2,97,87,55,29.99,29.87,15,2,18,0.00
2013-3-20,71.8,65.5,59.4,66.0,62.5,57.4,95,90,73,29.95,29.79,21,3,26,0.00
2013-3-21,61.7,58.8,52.5,59.7,45.0,32.9,93,62,35,29.99,29.86,18,4,24,0.00
2013-3-22,75.9,62.0,49.6,67.6,52.2,40.8,98,73,37,29.99,29.86,14,3,17,0.00
2013-3-23,80.6,71.4,65.3,74.3,69.1,64.4,98,93,79,29.94,29.77,18,5,20,0.00
2013-3-24,78.4,72.7,68.7,73.6,70.7,66.7,98,93,85,29.79,29.62,23,7,31,0.00
2013-3-25,69.3,61.0,57.6,67.3,50.6,39.7,95,69,50,30.04,29.73,21,7,30,0.00
2013-3-26,60.1,54.1,51.1,46.8,39.2,34.0,69,57,44,30.24,30.03,25,7,30,0.00
2013-3-27,53.1,49.2,42.6,42.3,35.9,28.8,77,60,46,30.33,30.20,15,5,21,0.00
2013-3-28,63.9,55.0,45.9,48.9,39.8,30.4,88,60,31,30.29,30.19,14,3,21,0.00
2013-3-29,72.5,60.1,49.5,54.1,47.1,34.0,86,65,25,30.31,30.18,11,3,15,0.00
2013-3-30,73.0,63.1,52.3,59.2,52.9,45.0,86,71,42,30.23,30.11,15,3,20,0.00
2013-3-31,77.7,67.7,58.6,62.6,57.7,53.6,89,72,46,30.13,29.98,15,3,20,0.00
2013-4-1,75.6,70.5,66.9,69.4,65.9,62.1,96,86,77,30.01,29.93,14,4,18,0.00
2013-4-2,73.0,68.2,65.7,65.7,64.0,62.2,96,87,72,30.08,29.98,12,2,13,0.00
2013-4-3,84.0,72.7,64.8,69.1,65.9,61.9,95,80,51,30.06,29.91,18,4,22,0.00
2013-4-4,73.2,70.3,66.9,69.8,66.9,63.9,95,89,74,30.01,29.83,16,4,21,0.00
2013-4-5,68.4,65.9,61.5,66.0,61.7,56.5,95,87,75,29.98,29.78,21,5,24,0.01
2013-4-6,70.9,62.6,55.0,61.3,55.9,50.9,88,79,59,30.09,29.98,20,4,21,0.00
2013-4-7,82.4,69.3,60.3,64.2,60.2,57.6,94,74,44,30.12,30.02,13,4,14,0.00
2013-4-8,85.3,73.2,66.6,66.7,61.9,55.8,86,70,37,30.09,30.01,14,4,18,0.00
2013-4-9,83.3,73.8,66.2,67.6,64.9,62.4,92,75,52,30.12,30.03,15,4,18,0.00
2013-4-10,84.9,74.8,66.9,70.0,65.4,62.4,90,73,49,30.08,29.93,16,4,17,0.00
2013-4-11,88.0,77.9,72.1,72.3,70.5,65.7,93,79,58,29.94,29.77,19,7,25,0.00
2013-4-12,78.6,76.0,71.8,74.3,72.4,68.4,93,89,85,29.89,29.73,22,7,28,0.00
2013-4-13,79.0,73.4,70.2,69.6,67.6,65.1,91,82,69,29.96,29.85,13,2,14,0.00
2013-4-14,83.5,74.6,68.2,73.2,68.6,61.0,91,82,69,29.98,29.82,26,6,32,0.00
2013-4-15,82.6,75.2,69.4,70.9,66.5,62.4,83,75,60,30.04,29.88,13,2,17,0.00
2013-4-16,90.7,78.6,69.8,74.8,69.9,66.4,94,76,49,30.09,29.99,17,4,20,0.00
2013-4-17,87.3,77.7,68.4,71.6,66.0,60.4,92,69,41,30.11,29.98,18,6,22,0.00
2013-4-18,86.2,77.6,70.2,72.3,68.5,64.4,89,75,51,30.01,29.91,16,5,19,0.00
2013-4-19,87.1,79.4,73.0,73.9,71.6,67.8,94,78,55,29.97,29.89,22,6,26,0.00
2013-4-20,77.7,68.3,60.3,73.4,62.9,56.7,91,83,73,30.12,29.94,19,6,24,0.00
2013-4-21,81.0,68.9,60.3,69.8,63.6,56.3,94,84,65,30.11,30.00,17,5,19,0.00
2013-4-22,81.0,71.1,66.6,69.4,66.7,62.6,98,87,65,30.05,29.94,19,5,24,0.00
2013-4-23,81.3,71.9,64.9,68.4,64.2,59.5,92,78,56,30.08,29.99,18,6,22,0.00
2013-4-24,84.0,72.3,64.0,67.6,63.8,56.8,91,76,42,30.11,30.04,12,5,20,0.00
2013-4-25,81.5,73.5,65.7,70.2,66.4,62.8,93,79,58,30.18,30.07,14,3,16,0.00
2013-4-26,79.2,74.6,69.3,71.1,67.2,64.4,87,78,69,30.21,30.12,13,3,16,0.00
2013-4-27,85.5,75.9,70.0,70.2,67.5,63.1,92,76,48,30.18,30.05,18,4,18,0.00
2013-4-28,85.5,75.9,69.1,69.1,65.8,59.4,85,72,44,30.09,29.94,14,5,21,0.00
2013-4-29,83.7,76.3,69.4,72.0,67.7,61.3,88,75,56,29.98,29.87,14,3,16,0.00
2013-4-30,84.7,75.7,67.6,72.1,69.4,65.8,95,82,61,29.96,29.87,13,3,15,0.00
2013-5-1,74.1,71.0,66.7,72.5,69.1,65.5,97,94,89,29.97,29.88,14,4,16,0.00
2013-5-2,78.3,71.6,65.5,70.9,67.9,64.2,96,88,76,29.94,29.78,13,4,16,0.00
2013-5-3,78.3,72.8,68.2,72.0,68.6,65.3,97,87,74,29.79,29.69,14,3,17,0.00
2013-5-4,77.2,71.9,68.2,69.4,67.1,64.8,92,85,75,29.79,29.66,27,4,27,0.00
2013-5-5,73.2,68.9,64.6,66.4,56.8,49.6,93,67,48,29.92,29.77,19,6,28,0.00
2013-5-6,72.0,68.5,65.8,64.2,57.7,54.1,81,69,58,29.99,29.87,21,4,23,0.00
2013-5-7,73.6,69.7,66.0,63.3,58.8,55.2,77,68,60,30.03,29.94,23,5,23,0.00
2013-5-8,74.8,71.7,69.1,64.2,61.5,57.7,76,70,64,30.11,30.00,14,4,17,0.00
2013-5-9,78.6,73.5,68.5,67.1,64.8,62.8,83,74,65,30.12,30.05,13,2,15,0.00
2013-5-10,87.6,75.7,65.8,72.0,67.0,60.8,95,76,42,30.11,29.96,15,3,17,0.00
2013-5-11,82.0,76.7,72.5,75.9,72.7,68.7,95,88,77,30.02,29.96,15,3,17,0.00
2013-5-12,80.2,75.6,71.4,73.6,70.4,68.0,95,84,71,30.02,29.90,14,3,15,0.00
2013-5-13,78.6,74.6,70.7,70.2,60.6,49.1,86,63,41,30.11,29.98,17,4,22,0.00
2013-5-14,79.3,71.3,61.2,60.6,48.5,36.5,73,46,23,30.19,30.09,16,4,21,0.00
2013-5-15,84.9,74.0,66.4,63.7,60.2,50.2,81,63,35,30.18,30.04,14,3,15,0.00
2013-5-16,80.8,74.6,68.0,69.1,64.6,59.7,86,72,53,30.10,29.97,13,3,16,0.00
2013-5-17,82.2,76.1,69.8,69.4,67.3,64.4,86,75,59,30.06,29.99,14,4,17,0.00
2013-5-18,82.4,76.8,72.1,73.9,70.6,67.6,93,81,64,30.07,29.99,14,3,17,0.00
2013-5-19,83.5,77.8,73.0,72.7,70.2,66.2,92,78,62,30.06,29.96,11,2,16,0.00
2013-5-20,88.0,78.8,74.7,74.7,70.4,64.6,89,76,54,30.03,29.93,15,3,18,0.00
2013-5-21,87.3,76.2,71.1,73.2,70.3,67.1,95,83,57,30.00,29.89,20,4,30,0.00
2013-5-22,81.9,76.9,71.8,73.0,71.2,69.3,94,83,71,29.94,29.86,13,3,16,0.00
2013-5-23,83.1,78.8,74.1,74.1,72.6,70.7,90,81,73,29.99,29.88,16,3,19,0.00
2013-5-24,85.6,80.4,76.8,76.8,72.6,67.6,88,78,58,30.05,29.94,13,3,16,0.00
2013-5-25,90.3,81.7,72.9,72.9,65.5,59.7,82,60,38,30.13,30.02,19,6,21,0.00
2013-5-26,88.2,78.3,70.3,64.2,58.7,46.9,77,54,26,30.18,30.06,15,4,18,0.00
2013-5-27,88.5,78.2,67.6,68.9,63.6,59.9,87,63,40,30.14,30.01,17,5,23,0.00
2013-5-28,90.9,78.8,70.0,73.0,70.1,67.3,91,76,50,30.11,29.97,22,6,29,0.00
2013-5-29,85.6,79.1,74.1,74.1,71.0,66.4,92,77,60,30.06,29.98,25,7,25,0.00
2013-5-30,89.1,80.7,74.7,73.2,71.4,66.6,92,74,57,30.04,29.96,23,8,30,0.00
2013-5-31,89.4,80.0,75.0,75.4,71.3,69.3,87,75,56,30.04,29.96,17,6,24,0.00
2013-6-1,88.9,79.1,71.8,76.6,73.1,69.8,97,83,59,30.01,29.91,15,4,22,0.00
2013-6-2,85.6,79.1,73.8,76.8,74.6,72.7,97,86,70,29.96,29.86,16,3,18,0.01
2013-6-3,85.3,79.8,76.3,76.1,74.7,72.7,94,85,70,29.96,29.86,15,2,18,0.00
2013-6-4,86.7,80.6,75.9,75.4,73.2,68.0,93,79,59,29.97,29.89,17,2,17,0.00
2013-6-5,85.5,78.9,74.1,75.4,72.9,70.9,93,82,65,29.96,29.84,14,4,19,0.00
2013-6-6,82.6,76.9,73.6,76.5,73.5,71.2,98,90,78,29.85,29.59,34,10,44,0.00
2013-6-7,83.5,79.9,77.2,75.7,73.8,72.1,89,82,74,29.93,29.74,13,4,20,0.00
2013-6-8,84.7,78.9,72.7,77.4,74.4,71.2,97,87,76,30.06,29.92,21,3,22,0.00
2013-6-9,90.5,78.8,73.2,77.2,74.4,71.8,97,87,62,30.06,29.97,13,2,16,0.00
2013-6-10,88.0,80.9,76.1,77.4,75.5,73.6,95,84,65,30.05,29.98,12,3,15,0.00
2013-6-11,88.2,81.9,75.9,78.4,76.0,72.7,93,83,68,30.05,29.97,11,1,15,0.00
2013-6-12,88.0,82.5,76.5,77.7,75.1,72.3,88,79,67,30.05,29.97,13,1,15,0.00
2013-6-13,85.5,82.4,80.1,76.5,75.1,73.4,86,79,69,30.01,29.88,11,3,14,0.00
2013-6-14,84.6,81.9,80.2,76.5,74.7,73.2,84,79,73,29.92,29.85,15,6,21,0.00
2013-6-15,85.8,82.3,80.6,77.9,76.6,73.8,86,83,76,30.02,29.88,11,4,14,0.00
2013-6-16,89.6,82.4,78.1,78.3,76.6,73.9,91,83,68,30.04,29.97,14,3,15,0.00
2013-6-17,87.3,83.2,78.4,78.1,76.0,73.2,92,80,68,30.03,29.96,14,3,16,0.00
2013-6-18,87.1,83.4,78.6,77.7,76.3,74.8,88,79,72,30.02,29.94,14,3,18,0.00
2013-6-19,88.3,83.9,79.0,78.4,76.4,71.4,89,79,68,30.00,29.94,13,2,18,0.00
2013-6-20,89.1,83.2,78.1,77.9,74.6,70.0,90,76,60,30.06,29.97,14,2,15,0.00
2013-6-21,87.3,79.9,75.4,76.8,72.7,70.2,89,79,65,30.08,30.00,15,2,20,0.00
2013-6-22,92.5,81.0,75.0,76.3,72.2,66.4,92,76,46,30.08,30.01,14,2,20,0.00
2013-6-23,90.3,80.6,72.9,76.3,74.2,70.2,94,82,59,30.09,30.01,16,2,23,0.00
2013-6-24,92.1,82.2,74.7,76.5,74.6,70.5,94,79,51,30.14,30.02,11,2,21,0.00
2013-6-25,90.9,81.7,74.1,77.4,74.3,68.4,96,80,55,30.13,29.99,17,2,22,0.02
2013-6-26,88.3,80.7,75.4,77.7,74.7,71.2,93,83,63,30.04,29.96,13,2,19,0.03
2013-6-27,86.7,81.4,74.3,78.1,74.7,71.8,93,81,69,30.02,29.91,11,3,15,0.00
2013-6-28,87.1,83.8,80.1,78.1,76.1,73.6,83,78,69,29.94,29.81,15,3,20,0.00
2013-6-29,85.5,81.9,74.7,77.7,75.1,70.2,90,80,71,29.85,29.76,24,3,26,0.00
2013-6-30,87.8,82.8,78.1,78.4,75.6,72.3,89,79,71,29.84,29.76,24,4,29,0.00
2013-7-1,81.0,76.7,72.5,77.4,74.2,70.2,97,92,85,29.95,29.78,15,3,26,0.00
2013-7-2,90.1,78.9,72.9,77.4,73.7,71.6,98,85,62,30.04,29.91,15,4,26,0.00
2013-7-3,90.1,77.7,71.8,77.0,74.0,69.6,98,89,64,30.07,29.98,28,3,33,0.00
2013-7-4,90.9,78.5,72.9,76.6,73.9,71.4,97,87,60,30.11,30.00,16,3,22,0.00
2013-7-5,90.1,77.7,72.5,77.2,74.2,71.1,98,90,62,30.10,30.03,26,4,30,0.00
2013-7-6,92.5,81.7,75.0,77.5,75.0,71.1,96,82,52,30.08,29.98,17,4,22,0.00
2013-7-7,93.9,81.8,75.9,76.8,75.0,72.0,95,81,51,30.10,29.98,18,4,21,0.00
2013-7-8,91.8,81.5,74.1,77.5,75.3,70.3,96,83,57,30.12,30.02,18,1,24,0.00
2013-7-9,90.9,82.1,76.3,77.0,74.7,68.7,94,79,62,30.13,30.00,14,2,14,0.00
2013-7-10,87.6,81.3,74.7,75.7,73.5,70.7,95,78,64,30.05,29.92,14,1,15,0.00
2013-7-11,84.4,78.8,73.8,78.1,75.1,71.8,97,89,74,29.99,29.88,16,1,20,0.00
2013-7-12,85.8,81.9,76.5,76.3,74.7,72.5,92,79,70,29.92,29.85,9,2,14,0.02
2013-7-13,85.8,77.9,73.9,77.4,74.3,71.2,96,89,71,29.94,29.86,11,1,22,0.03
2013-7-14,86.5,78.9,74.5,78.1,74.8,72.7,96,88,73,30.04,29.91,11,3,13,0.01
2013-7-15,89.1,79.8,75.0,76.1,73.4,70.7,92,82,57,30.07,29.98,12,4,17,0.02
2013-7-16,91.4,79.4,74.8,75.2,73.0,70.7,94,82,53,30.12,30.03,23,6,40,0.01
2013-7-17,91.8,77.9,68.5,75.7,73.1,66.2,97,87,54,30.13,30.01,24,3,50,0.00
2013-7-18,88.9,78.3,73.0,74.8,72.9,70.2,96,85,58,30.08,30.00,17,3,19,0.00